TimeCST,TemperatureF,Dew PointF,Humidity,Sea Level PressureIn,VisibilityMPH,Wind Direction,Wind SpeedMPH,Gust SpeedMPH,PrecipitationIn,Events,Conditions,WindDirDegrees,DateUTC
12:53 AM,48.9,42.1,77,30.27,10.0,North,9.2,-,N/A,,Clear,10,2012-11-16 06:53:00
1:53 AM,46.9,41.0,80,30.28,10.0,North,6.9,-,N/A,,Clear,360,2012-11-16 07:53:00
2:53 AM,46.9,41.0,80,30.28,10.0,North,6.9,-,N/A,,Clear,350,2012-11-16 08:53:00
3:53 AM,46.0,41.0,83,30.27,10.0,North,5.8,-,N/A,,Clear,350,2012-11-16 09:53:00
4:53 AM,45.0,39.9,82,30.27,10.0,NNW,4.6,-,N/A,,Clear,340,2012-11-16 10:53:00
5:53 AM,44.1,39.9,85,30.27,10.0,North,4.6,-,N/A,,Clear,360,2012-11-16 11:53:00
6:53 AM,45.0,41.0,86,30.29,8.0,NNE,6.9,-,N/A,,Clear,20,2012-11-16 12:53:00
7:53 AM,48.9,43.0,80,30.31,9.0,NNE,9.2,-,N/A,,Clear,20,2012-11-16 13:53:00
8:53 AM,54.0,44.1,69,30.33,10.0,NE,12.7,-,N/A,,Clear,40,2012-11-16 14:53:00
9:53 AM,57.9,44.1,60,30.33,10.0,NE,8.1,-,N/A,,Clear,50,2012-11-16 15:53:00
10:53 AM,63.0,42.1,46,30.32,10.0,NE,12.7,-,N/A,,Clear,40,2012-11-16 16:53:00
11:53 AM,66.0,39.9,38,30.30,10.0,NE,13.8,-,N/A,,Clear,40,2012-11-16 17:53:00
12:53 PM,66.9,39.9,37,30.26,10.0,NNE,12.7,-,N/A,,Clear,30,2012-11-16 18:53:00
1:53 PM,68.0,37.9,33,30.25,10.0,NE,10.4,-,N/A,,Clear,40,2012-11-16 19:53:00
2:53 PM,68.0,39.0,35,30.24,10.0,North,9.2,-,N/A,,Clear,360,2012-11-16 20:53:00
3:53 PM,66.9,37.9,34,30.24,10.0,NNE,8.1,-,N/A,,Clear,20,2012-11-16 21:53:00
4:53 PM,61.0,39.0,44,30.25,10.0,North,6.9,-,N/A,,Clear,10,2012-11-16 22:53:00
5:53 PM,55.9,42.1,60,30.27,10.0,North,5.8,-,N/A,,Clear,350,2012-11-16 23:53:00
6:53 PM,53.1,41.0,64,30.29,10.0,North,5.8,-,N/A,,Clear,360,2012-11-17 00:53:00
7:53 PM,52.0,41.0,66,30.30,10.0,North,5.8,-,N/A,,Clear,360,2012-11-17 01:53:00
8:53 PM,50.0,39.0,66,30.31,10.0,North,6.9,-,N/A,,Clear,10,2012-11-17 02:53:00
9:53 PM,48.0,39.0,71,30.32,10.0,North,5.8,-,N/A,,Clear,360,2012-11-17 03:53:00
10:53 PM,46.9,37.9,71,30.33,10.0,North,6.9,-,N/A,,Clear,10,2012-11-17 04:53:00
11:53 PM,48.9,39.9,71,30.32,10.0,NNE,9.2,-,N/A,,Clear,20,2012-11-17 05:53:00